When you browse on this site, cookies collect data to enhance your experience and personalize the content and advertising you see.
Visit our Privacy Policy to learn more. By continuing to use the site, you agree to this use of cookies and data.
  • In Austria
  • List of Countries
  • For 7 days
  • Water Temperature
  • Satellite Maps
  • Weather Map
  • News
  • Weather Widgets
  • user-avatar
    Login

    Hourly Weather Borovaya

    Today, 16 July, Tuesday

    Time Temperature Precipitation Wind Pressure Humidity
    00:00 +15°C° 0.1 mm 1 mps 745 mmHg 89%
    01:00 +15°C° 0.1 mm 1 mps 745 mmHg 89%
    02:00 +14°C° 0 mm 1 mps 745 mmHg 91%
    03:00 +14°C° 0.1 mm 1 mps 745 mmHg 91%
    04:00 +14°C° 0.1 mm 1 mps 745 mmHg 92%
    05:00 +14°C° 0.1 mm 1 mps 745 mmHg 93%
    06:00 +15°C° 0 mm 1 mps 745 mmHg 88%
    07:00 +18°C° 0 mm 1 mps 745 mmHg 83%
    08:00 +18°C° 0 mm 2 mps 745 mmHg 79%
    09:00 +20°C° 0.5 mm 2 mps 745 mmHg 72%
    10:00 +21°C° 0.5 mm 2 mps 745 mmHg 65%
    11:00 +23°C° 0.5 mm 2 mps 745 mmHg 58%
    12:00 +23°C° 0 mm 2 mps 744 mmHg 55%
    13:00 +24°C° 0 mm 2 mps 744 mmHg 53%
    14:00 +25°C° 0 mm 2 mps 744 mmHg 50%
    15:00 +24°C° 0 mm 2 mps 743 mmHg 52%
    16:00 +24°C° 0 mm 2 mps 743 mmHg 54%
    17:00 +24°C° 0 mm 2 mps 743 mmHg 56%
    18:00 +21°C° 0 mm 2 mps 743 mmHg 62%
    19:00 +20°C° 0 mm 1 mps 743 mmHg 68%
    20:00 +19°C° 0 mm 1 mps 743 mmHg 74%
    21:00 +18°C° 0 mm 1 mps 743 mmHg 76%
    22:00 +16°C° 0 mm 1 mps 743 mmHg 78%
    23:00 +15°C° 0 mm 1 mps 743 mmHg 80%

    Tomorrow, 17 July, Wednesday

    Time Temperature Precipitation Wind Pressure Humidity
    00:00 +15°C° 0.1 mm 1 mps 743 mmHg 82%
    01:00 +15°C° 0.1 mm 1 mps 742 mmHg 84%
    02:00 +15°C° 0.1 mm 1 mps 742 mmHg 85%
    03:00 +15°C° 0.3 mm 2 mps 742 mmHg 88%
    04:00 +14°C° 0.3 mm 2 mps 742 mmHg 91%
    05:00 +13°C° 0.3 mm 3 mps 742 mmHg 93%
    06:00 +14°C° 0.1 mm 3 mps 742 mmHg 89%
    07:00 +16°C° 0.1 mm 3 mps 742 mmHg 85%
    08:00 +17°C° 0.1 mm 3 mps 742 mmHg 81%
    09:00 +18°C° 0.2 mm 4 mps 742 mmHg 77%
    10:00 +19°C° 0.2 mm 4 mps 742 mmHg 72%
    11:00 +20°C° 0.2 mm 4 mps 742 mmHg 67%
    12:00 +20°C° 0.6 mm 4 mps 742 mmHg 68%
    13:00 +20°C° 0.6 mm 4 mps 742 mmHg 68%
    14:00 +20°C° 0.6 mm 4 mps 741 mmHg 69%
    15:00 +20°C° 0.7 mm 4 mps 741 mmHg 70%
    16:00 +19°C° 0.7 mm 4 mps 741 mmHg 71%
    17:00 +19°C° 0.7 mm 3 mps 741 mmHg 72%
    18:00 +17°C° 0.3 mm 3 mps 741 mmHg 77%
    19:00 +16°C° 0.3 mm 3 mps 741 mmHg 82%
    20:00 +14°C° 0.3 mm 2 mps 741 mmHg 87%
    21:00 +14°C° 0 mm 2 mps 741 mmHg 88%
    22:00 +13°C° 0 mm 2 mps 741 mmHg 89%
    23:00 +13°C° 0 mm 2 mps 741 mmHg 90%

    Day after tomorrow, 18 July, Thursday

    Time Temperature Precipitation Wind Pressure Humidity
    00:00 +12°C° 0 mm 2 mps 741 mmHg 92%
    01:00 +12°C° 0 mm 2 mps 741 mmHg 93%
    02:00 +12°C° 0 mm 2 mps 741 mmHg 95%
    03:00 +12°C° 0 mm 2 mps 741 mmHg 96%
    04:00 +12°C° 0 mm 2 mps 741 mmHg 97%
    05:00 +10°C° 0 mm 3 mps 741 mmHg 98%
    06:00 +12°C° 0 mm 3 mps 742 mmHg 94%
    07:00 +13°C° 0 mm 3 mps 742 mmHg 91%
    08:00 +14°C° 0 mm 4 mps 742 mmHg 87%
    09:00 +17°C° 0.1 mm 4 mps 742 mmHg 81%
    10:00 +17°C° 0.1 mm 5 mps 742 mmHg 75%
    11:00 +20°C° 0.1 mm 5 mps 742 mmHg 68%
    12:00 +20°C° 0.4 mm 5 mps 742 mmHg 69%
    13:00 +20°C° 0.4 mm 6 mps 742 mmHg 70%
    14:00 +20°C° 0.4 mm 6 mps 742 mmHg 71%
    15:00 +20°C° 0 mm 6 mps 742 mmHg 71%
    16:00 +20°C° 0 mm 5 mps 742 mmHg 71%
    17:00 +20°C° 0 mm 5 mps 743 mmHg 70%
    18:00 +19°C° 0.2 mm 5 mps 743 mmHg 75%
    19:00 +18°C° 0.2 mm 4 mps 743 mmHg 79%
    20:00 +17°C° 0.2 mm 4 mps 743 mmHg 84%
    21:00 +17°C° 0 mm 4 mps 743 mmHg 87%
    22:00 +15°C° 0 mm 4 mps 743 mmHg 89%
    23:00 +14°C° 0 mm 4 mps 744 mmHg 92%

    19 July, Friday

    Time Temperature Precipitation Wind Pressure Humidity
    00:00 +14°C° 0 mm 4 mps 744 mmHg 94%
    01:00 +14°C° 0 mm 4 mps 744 mmHg 95%
    02:00 +14°C° 0 mm 3 mps 744 mmHg 96%
    03:00 +14°C° 0 mm 3 mps 744 mmHg 97%
    04:00 +14°C° 0 mm 3 mps 745 mmHg 97%
    05:00 +13°C° 0 mm 4 mps 745 mmHg 97%
    06:00 +15°C° 0 mm 4 mps 745 mmHg 92%
    07:00 +17°C° 0 mm 4 mps 745 mmHg 88%
    08:00 +18°C° 0 mm 4 mps 746 mmHg 83%
    09:00 +19°C° 0 mm 5 mps 746 mmHg 76%
    10:00 +21°C° 0 mm 5 mps 746 mmHg 69%
    11:00 +22°C° 0 mm 5 mps 746 mmHg 63%
    12:00 +23°C° 0.2 mm 6 mps 746 mmHg 61%
    13:00 +23°C° 0.2 mm 6 mps 746 mmHg 60%
    14:00 +24°C° 0.2 mm 6 mps 747 mmHg 58%
    15:00 +23°C° 0.1 mm 6 mps 747 mmHg 59%
    16:00 +23°C° 0.1 mm 5 mps 747 mmHg 59%
    17:00 +23°C° 0.1 mm 5 mps 747 mmHg 60%
    18:00 +21°C° 0 mm 4 mps 747 mmHg 65%
    19:00 +20°C° 0 mm 3 mps 747 mmHg 70%
    20:00 +18°C° 0 mm 2 mps 748 mmHg 75%
    21:00 +17°C° 0 mm 2 mps 748 mmHg 78%
    22:00 +17°C° 0 mm 2 mps 748 mmHg 81%
    23:00 +16°C° 0 mm 2 mps 749 mmHg 84%

    20 July, Saturday

    Time Temperature Precipitation Wind Pressure Humidity
    00:00 +16°C° 0 mm 2 mps 749 mmHg 86%
    01:00 +15°C° 0 mm 2 mps 749 mmHg 89%
    02:00 +15°C° 0 mm 2 mps 749 mmHg 91%
    03:00 +15°C° 0 mm 2 mps 749 mmHg 91%
    04:00 +15°C° 0 mm 2 mps 749 mmHg 92%
    05:00 +15°C° 0 mm 2 mps 749 mmHg 92%
    06:00 +16°C° 0 mm 2 mps 750 mmHg 85%
    07:00 +18°C° 0 mm 2 mps 750 mmHg 79%
    08:00 +20°C° 0 mm 2 mps 750 mmHg 72%
    09:00 +23°C° 0 mm 2 mps 750 mmHg 65%
    10:00 +24°C° 0 mm 3 mps 750 mmHg 59%
    11:00 +25°C° 0 mm 3 mps 750 mmHg 52%
    12:00 +26°C° 0 mm 3 mps 750 mmHg 52%
    13:00 +26°C° 0 mm 3 mps 750 mmHg 51%
    14:00 +26°C° 0 mm 2 mps 750 mmHg 51%
    15:00 +26°C° 0 mm 2 mps 750 mmHg 53%
    16:00 +26°C° 0 mm 2 mps 750 mmHg 56%
    17:00 +25°C° 0 mm 2 mps 750 mmHg 58%
    18:00 +24°C° 0 mm 1 mps 750 mmHg 63%
    19:00 +22°C° 0 mm 1 mps 750 mmHg 68%
    20:00 +18°C° 0 mm 0 mps 750 mmHg 73%
    21:00 +20°C° 0.1 mm 1 mps 750 mmHg 74%
    22:00 +19°C° 0.1 mm 1 mps 750 mmHg 75%
    23:00 +19°C° 0.1 mm 1 mps 750 mmHg 76%

    21 July, Sunday

    Time Temperature Precipitation Wind Pressure Humidity
    00:00 +19°C° 0.1 mm 1 mps 750 mmHg 79%
    01:00 +19°C° 0.1 mm 1 mps 750 mmHg 81%
    02:00 +19°C° 0.1 mm 1 mps 750 mmHg 84%
    03:00 +19°C° 0.3 mm 1 mps 750 mmHg 86%
    04:00 +18°C° 0.3 mm 1 mps 750 mmHg 89%
    05:00 +16°C° 0.3 mm 0 mps 750 mmHg 91%
    06:00 +18°C° 0.1 mm 0 mps 750 mmHg 87%
    07:00 +19°C° 0.1 mm 0 mps 750 mmHg 83%
    08:00 +22°C° 0.1 mm 1 mps 750 mmHg 79%
    09:00 +23°C° 0.4 mm 1 mps 751 mmHg 74%
    10:00 +24°C° 0.4 mm 1 mps 751 mmHg 70%
    11:00 +25°C° 0.4 mm 1 mps 751 mmHg 66%
    12:00 +26°C° 0.3 mm 1 mps 751 mmHg 63%
    13:00 +26°C° 0.3 mm 1 mps 750 mmHg 59%
    14:00 +27°C° 0.3 mm 1 mps 750 mmHg 55%
    15:00 +27°C° 0 mm 1 mps 750 mmHg 56%
    16:00 +27°C° 0 mm 1 mps 750 mmHg 56%
    17:00 +26°C° 0 mm 1 mps 750 mmHg 56%
    18:00 +25°C° 0 mm 1 mps 750 mmHg 61%
    19:00 +23°C° 0 mm 1 mps 750 mmHg 66%
    20:00 +19°C° 0 mm 0 mps 750 mmHg 72%
    21:00 +18°C° 0 mm 0 mps 750 mmHg 74%
    22:00 +20°C° 0 mm 1 mps 750 mmHg 77%
    23:00 +19°C° 0 mm 1 mps 750 mmHg 79%
    Show more